Flag Weather past 2 weeks in Lillesand, Norway

Now
39 °F

Chilly.


Feels Like: 35 °F
Forecast: 37 / 39 °F
Wind: 6 mph from Northeast

Location: Kristiansand / Kjevik

Current Time: Nov 28, 2014 at 7:59:40 AM

Latest Report: Nov 28, 2014 at 7:00 AM


Visibility: N/A

Pressure: 30.23 "Hg

Humidity: 87%

Dew point: 36 °F

Location of LillesandLocation

Historic Weather in Lillesand — Graph

°F

Lillesand temperature yesterday

Maximum temperature yesterday: 38 °F (at 12:00 AM)
Minimum temperature yesterday: 36 °F (at 9:00 PM)
Average temperature yesterday: 37 °F

Past Weeks' High & Low Weather Summary

 TemperatureHumidityPressure
High49 °F (Nov 23, 11:00 PM)99% (Nov 25, 10:00 PM)30.49 "Hg (Nov 25, 10:00 PM)
Low28 °F (Nov 21, 7:00 AM)66% (Nov 24, 4:00 PM)29.75 "Hg (Nov 24, 3:00 AM)
Average41 °F89%30.16 "Hg
* Reported Nov 13 7:00 AM — Nov 28 7:00 AM, Lillesand, Weather by CustomWeather, © 2014

Note: Actual official high and low records may vary slightly from our data, if they occured in-between our weather recording intervals... More about our weather records

Advertising

Lillesand weather history for previous 24 hours

 ConditionsComfort  
Time TempWeatherWind HumidityBarometerVisibility
7:00 AM
Nov 28
39 °FChilly.6 mph87%30.23 "HgN/A
6:00 AM39 °FChilly.6 mph89%30.22 "HgN/A
5:00 AM38 °FChilly.5 mph91%30.22 "HgN/A
4:00 AM37 °FChilly.6 mph93%30.20 "HgN/A
3:00 AM37 °FChilly.5 mph94%30.20 "HgN/A
2:00 AM37 °FChilly.6 mph95%30.19 "HgN/A
1:00 AM37 °FChilly.8 mph95%30.18 "HgN/A
12:00 AM36 °FChilly.7 mph95%30.18 "HgN/A
11:00 PM
Nov 27
37 °FChilly.8 mph94%30.17 "HgN/A
10:00 PM37 °FChilly.6 mph93%30.16 "HgN/A
9:00 PM36 °FChilly.8 mph94%30.16 "HgN/A
8:00 PM36 °FChilly.8 mph94%30.15 "HgN/A
7:00 PM37 °FChilly.7 mph95%30.13 "HgN/A
6:00 PM37 °FChilly.7 mph94%30.12 "HgN/A
5:00 PM37 °FChilly.7 mph93%30.12 "HgN/A
4:00 PM36 °FChilly.7 mph93%30.10 "HgN/A
3:00 PM36 °FChilly.8 mph92%30.10 "HgN/A
2:00 PM36 °FChilly.8 mph93%30.11 "HgN/A
1:00 PM36 °FChilly.6 mph93%30.12 "HgN/A
12:00 PM36 °FChilly.8 mph93%30.12 "HgN/A
11:00 AM37 °FChilly.7 mph93%30.14 "HgN/A
10:00 AM37 °FChilly.7 mph93%30.14 "HgN/A
9:00 AM37 °FChilly.6 mph93%30.14 "HgN/A
8:00 AM36 °FChilly.7 mph94%30.12 "HgN/A
7:00 AM37 °FChilly.7 mph93%30.11 "HgN/A
Weather by CustomWeather, © 2014

See weather overviewHow to use our weather pages